Regional Weather Roundup
Issued by NWS Grand Forks, ND

Home | Current Version | Previous Version | Text Only | Print | Product List | Glossary Off
Versions: 1 2 3 4 5 6 7 8 9 10 11 12 13 14 15 16 17 18 19 20 21 22 23 24 25 26 27 28 29 30 31 32 33 34 35 36 37 38 39 40 41 42 43 44 45 46 47 48 49 50

000
ASUS43 KFGF 290710
RWRFGF
PRAIRIE TO PINES  WEATHER ROUNDUP
NATIONAL WEATHER SERVICE EASTERN NORTH DAKOTA/GRAND FORKS ND
200 AM CDT FRI APR 29 2016

 **SATELLITE DATA USED TO AUGMENT SKY COVER AT AUTOMATED STATIONS**
 *****  WEATHER ACROSS EASTERN NORTH DAKOTA  *****

CITY           SKY/WX    TMP DP  RH WIND       PRES   REMARKS
GRAND FORKS    CLOUDY    35  27  72 N6        30.17S
GRAND FRKS AFB CLOUDY    32  27  80 N5        30.17S
DEVILS LAKE    CLOUDY    40  23  50 N3        30.19S
FARGO          CLOUDY    38  28  67 N6        30.14R
WAHPETON ARPT  CLOUDY    41  34  75 CALM      30.15S
$$

 ***** WEATHER ACROSS CENTRAL AND WESTERN NORTH DAKOTA  *****

CITY           SKY/WX    TMP DP  RH WIND       PRES   REMARKS
BISMARCK       PTCLDY    39  32  76 NE7       30.16S
MINOT          PTCLDY    43  19  38 NE7       30.19S
JAMESTOWN      CLOUDY    39  27  62 NE8       30.13F
MINOT AFB      PTCLDY    40  20  45 E7        30.19S
GARRISON         N/A     34  23  64 NE5       30.17S
WILLISTON      PTCLDY    40  28  62 NE6       30.17S
DICKINSON      MOCLDY    39  26  59 E3        30.12S
HETTINGER      CLOUDY    37  35  92 NW5       30.14S
$$

 *****  OTHER AIRPORT OBSERVATIONS IN OUR AREA  *****

CITY           SKY/WX    TMP DP  RH WIND       PRES   REMARKS
WALHALLA       FAIR      37  23  56 NW7       30.22S
GRAFTON AIRPOR FAIR      39  28  65 N6        30.21S
VALLEY CITY AR FAIR      39  27  60 NE7       30.16F
CANDO          FAIR      32  23  69 NW3       30.22S
CAVALIER APRT  FAIR      39  25  56 N5        30.21S
GWINNER        PTSUNNY   39  37  93 SW8       30.14S
SHEYENNE NWR     N/A     34  32  92 CALM      29.95S
ROLLA          FAIR      32  18  55 N9        30.22S WCI  24
 ***** THE ABOVE OBSERVATIONS ARE NON NWS ARE NOT QUALITY
       CONTROLLED AND MAY MIS-REPORT RAIN FOR SNOW...
$$

  *****  WEATHER ACROSS NORTHERN MINNESOTA  *****

CITY           SKY/WX    TMP DP  RH WIND       PRES   REMARKS
FLAG ISLAND    CLOUDY    39  36  87 CALM      30.19S
WARROAD        CLOUDY    39  32  75 N3        30.20S
ROSEAU         CLOUDY    37  30  75 CALM      30.19S
HALLOCK        CLOUDY    41  27  56 N3        30.19S
THF RVR FALLS  PTCLDY    43  27  52 NE9       30.18S
BAUDETTE       CLOUDY    37  28  70 NE3       30.18R
WASKISH        PTCLDY    39  30  70 NE5       30.16S
CROOKSTON      PTCLDY    43  25  49 E8        30.17S
STEPHEN NDAWN    N/A     34  28  80 N5          N/A
GREENBUSH NDAW   N/A     37  30  75 NE2         N/A
$$
  *****  WEATHER ACROSS CENTRAL AND WEST MINNESOTA  *****

CITY           SKY/WX    TMP DP  RH WIND       PRES   REMARKS
FOSSTON        CLOUDY    37  27  65 NE6       30.16S
BEMIDJI        PTCLDY    38  31  76 CALM      30.15R
PARK RAPIDS    CLOUDY    39  30  70 S6        30.13F
ELBOW LAKE     FAIR      39  38  94 E3        30.16S
WADENA         CLOUDY    36  36 100 CALM      30.15S
DETROIT LAKES  CLOUDY    41  36  81 SW3       30.15S
MOORHEAD       CLOUDY    41  37  87 S5        30.15S
FERGUS FALLS   PTCLDY    39  39 100 CALM      30.14S
MORRIS MN      PTCLDY    37  36  93 CALM      30.14F
STAPLES        CLOUDY    36  34  93 W5        30.14F
$$
  *****  WEATHER ELSEWHERE ACROSS MINNESOTA  *****

CITY           SKY/WX    TMP DP  RH WIND       PRES   REMARKS
DULUTH         CLOUDY    30  24  78 N3        30.13S
INTRNTL FALLS  CLOUDY    38  30  73 NE5       30.17R
ELY            CLOUDY    30  28  93 CALM      30.15S
CLOQUET        CLOUDY    28  25  86 CALM      30.14S
WHEATON        CLOUDY    43  39  87 CALM      30.16F
BRAINERD       CLOUDY    35  28  75 CALM      30.14F
HIBBING        CLOUDY    27  25  92 CALM      30.15R
ALEXANDRIA     CLOUDY    39  36  89 CALM      30.16S
SAINT CLOUD    CLOUDY    38  37  97 NW5       30.14S
MINNEAPOLIS    CLOUDY    37  34  89 CALM      30.14F
$$

  *****  WEATHER ACROSS SOUTH DAKOTA  *****

CITY           SKY/WX    TMP DP  RH WIND       PRES   REMARKS
SIOUX FALLS    CLOUDY    39  37  92 CALM      30.13S
BROOKINGS      MOCLDY    37  35  92 CALM      30.13R
WATERTOWN      CLOUDY    38  35  89 S5        30.14R
HURON          CLOUDY    37  37 100 CALM      30.16R
SISSETON         N/A     41  37  86 CALM      30.13S
ABERDEEN       CLOUDY    39  36  89 SW6       30.16S
MITCHELL       CLOUDY    40  37  89 CALM      30.16R
PIERRE         CLOUDY    42  37  82 NW3       30.13F
MOBRIDGE       PTCLDY    43  38  82 SE7       30.12S
RAPID CITY     CLOUDY    36  34  92 CALM      30.13S
$$

  *****  SOME WEATHER IN NEARBY STATES *****

CITY           SKY/WX    TMP DP  RH WIND       PRES   REMARKS
GLASGOW MT     CLOUDY    40  33  76 CALM      30.14R
GREAT FALLS MT CLOUDY    38  32  79 E10       30.03F
CHEYENNE WY    CLOUDY    32  31  96 SE9       30.03R WCI  24
SCOTTSBLUFF NE CLOUDY    35  32  88 CALM      30.10R
OMAHA NE       CLOUDY    45  41  86 NW7       30.12F
DES MOINES IA  CLOUDY    48  43  82 N9        30.08S
DAVENPORT IA   CLOUDY    45  43  93 NE14      30.04S FOG
CHICAGO IL     CLOUDY    42  41  96 NW5       30.02R FOG
EAU CLAIRE WI  CLOUDY    39  38  96 CALM      30.12R
LA CROSSE WI   CLOUDY    40  36  86 N6        30.10F
$$

  *****  SOME NATIONAL WEATHER *****

CITY           SKY/WX    TMP DP  RH WIND       PRES   REMARKS
LA GUARDIA NY  CLOUDY    50  36  58 E6        30.04F
RALEIGH NC     DRZL/FOG  63  62  97 NE8       29.93R VSB 1
ATLANTA GA     CLEAR     67  58  72 W7        29.97S
NEW ORLEANS LA CLEAR     73  69  87 S7        29.91F
OKLAHOMA CITY  MOCLDY    61  51  70 NE15      29.86F
ALBUQUERQUE NM MOCLDY    56  22  26 NW15      29.82R
SALT LAKE CITY CLOUDY    48  32  53 SW9       29.84R
LOS ANGELES CA PTCLDY    58  51  78 VRB5      29.97R
BOISE ID       MOCLDY    53  34  48 NW13      29.88R
SEATTLE WA     CLOUDY    52  47  83 W6        30.10S
$$

*** WEATHER ACROSS MANITOBA...SASKATCHEWAN AND ONTARIO ***
                ***ONTARIO***

CITY           SKY/WX    TMP DP  RH WIND       PRES   REMARKS
GERALDTON      PTCLDY    30  27  86 NE3       30.19R
THUNDER BAY    PTCLDY    28  25  86 W3        30.16S
SIOUX LOOKOUT  CLOUDY    41  30  65 NE3       30.19S
TORONTO        CLOUDY    43  27  52 E8        30.07S
BIG TROUT LK   CLOUDY    30  27  86 NE3       30.29S
PICKLE LAKE    NOT AVBL
DRYDEN         CLOUDY    43  30  61 NE9       30.18S
KENORA         PTCLDY    39  30  70 NE6       30.20S
$$
                *** MANITOBA***

CITY           SKY/WX    TMP DP  RH WIND       PRES   REMARKS
BRANDON        CLEAR     34  18  51 NE10      30.24F
DAUPHIN        CLEAR     25  16  68 W2        30.28S
ISLAND LAKE    CLEAR     32  14  47 E6        30.33S
PILOT MOUND      N/A     36  14  41 NE8         N/A
THE PAS        CLEAR     32  21  64 SE2       30.29S
THOMPSON       MOCLDY    41  16  36 VRB2      30.31S
WINNIPEG       CLEAR     32  23  69 NW2       30.24R
LYNN LAKE      CLEAR     36  25  64 CALM      30.20S
GILLAM         CLEAR     27  18  69 E3        30.39S
$$
                ***SASKATCHEWAN***

CITY           SKY/WX    TMP DP  RH WIND       PRES   REMARKS
ESTEVAN        CLOUDY    36  18  48 E8        30.20S
KINDERSLEY     NOT AVBL
LLOYDMINSTER   MOCLDY    43  27  52 SE9       30.09F
PRINCE ALBERT  MOCLDY    34  27  75 E6        30.20S
REGINA         PTCLDY    39  18  41 SE10      30.20S
YORKTON        CLEAR     36  25  64 CALM      30.25S
N. BATTLEFORD  CLEAR     41  25  52 SE14      30.16F
LA RONGE       CLEAR     43  25  49 S7        30.20S
SASKATOON      MOCLDY    41  27  56 SE9       30.18F
SWIFT CURRENT  PTCLDY    36  25  64 SE8       30.11S
$$
NOTE: THESE ARE AUTOMATED STATIONS WITH LIMITED QUALITY CONTROL
      "FAIR" INDICATES FEW OR NO CLOUDS BELOW 12,000 FEET WITH NO
      SIGNIFICANT WEATHER AND/OR OBSTRUCTIONS TO VISIBILITY.
      SKY/WX - SKY CONDITION AND SIGNIFICANT WEATHER.
      TMP - AIR TEMPERATURE.    DP   - DEWPOINT TEMPERATURE.
      RH  - RELATIVE HUMIDITY.  PRES - PRESSURE.
      HX  - HEAT INDEX.         WCI  - WIND CHILL INDEX.
$



USA.gov is the U.S. government's official web portal to all federal, state and local government web resources and services.